TimeEST,TemperatureF,Dew PointF,Humidity,Sea Level PressureIn,VisibilityMPH,Wind Direction,Wind SpeedMPH,Gust SpeedMPH,PrecipitationIn,Events,Conditions,WindDirDegrees,DateUTC
1:53 AM,63.0,46.0,54,29.73,10.0,South,6.9,-,N/A,,Clear,180,2013-01-30 06:53:00
2:53 AM,63.0,46.9,56,29.69,10.0,South,6.9,-,N/A,,Clear,180,2013-01-30 07:53:00
3:53 AM,64.0,48.0,56,29.65,10.0,South,9.2,-,N/A,,Clear,170,2013-01-30 08:53:00
4:53 AM,64.9,50.0,58,29.62,10.0,South,12.7,-,N/A,,Clear,180,2013-01-30 09:53:00
5:53 AM,66.0,52.0,60,29.58,10.0,South,17.3,24.2,N/A,,Clear,180,2013-01-30 10:53:00
6:53 AM,66.9,51.1,57,29.55,10.0,South,18.4,25.3,N/A,,Clear,190,2013-01-30 11:53:00
7:53 AM,68.0,51.1,55,29.54,10.0,South,15.0,19.6,N/A,,Clear,190,2013-01-30 12:53:00
8:53 AM,70.0,51.1,51,29.51,10.0,SSW,23.0,29.9,N/A,,Clear,200,2013-01-30 13:53:00
9:53 AM,72.0,52.0,49,29.47,10.0,South,19.6,35.7,N/A,,Partly Cloudy,190,2013-01-30 14:53:00
10:41 AM,64.4,53.6,68,29.60,1.0,West,32.2,49.5,0.01,Rain,Rain,280,2013-01-30 15:41:00
10:48 AM,59.0,55.4,88,29.60,0.5,West,23.0,46.0,0.03,Fog-Rain,Heavy Rain,280,2013-01-30 15:48:00
10:53 AM,60.1,55.0,83,29.57,4.0,WNW,18.4,36.8,0.05,Rain,Light Rain,290,2013-01-30 15:53:00
11:00 AM,60.8,53.6,77,29.61,8.0,WNW,19.6,33.4,0.03,Rain,Rain,300,2013-01-30 16:00:00
11:53 AM,59.0,55.0,87,29.59,10.0,SW,8.1,-,0.15,Rain,Light Rain,230,2013-01-30 16:53:00
12:53 PM,57.9,54.0,87,29.58,10.0,South,8.1,-,0.01,Rain,Light Rain,190,2013-01-30 17:53:00
1:19 PM,57.2,55.4,94,29.60,6.0,South,5.8,-,0.01,Rain,Light Rain,180,2013-01-30 18:19:00
1:53 PM,57.0,55.0,93,29.55,10.0,SSE,4.6,-,0.02,Rain,Light Rain,150,2013-01-30 18:53:00
2:43 PM,55.4,53.6,94,29.54,3.0,SSE,6.9,-,0.04,Rain,Light Rain,150,2013-01-30 19:43:00
3:53 PM,57.0,54.0,89,29.49,6.0,South,8.1,-,0.06,Rain,Light Rain,180,2013-01-30 20:53:00
4:53 PM,55.9,53.1,90,29.43,5.0,SE,10.4,-,0.06,Rain,Light Rain,140,2013-01-30 21:53:00
5:53 PM,55.9,53.1,90,29.39,8.0,SSE,9.2,-,0.07,Rain,Rain,150,2013-01-30 22:53:00
6:53 PM,57.0,53.1,87,29.34,7.0,South,10.4,-,0.06,Rain,Rain,170,2013-01-30 23:53:00
7:53 PM,57.0,53.1,87,29.31,9.0,South,13.8,-,0.07,Rain,Light Rain,190,2013-01-31 00:53:00
8:30 PM,55.4,51.8,88,29.33,5.0,West,15.0,27.6,0.05,Rain,Rain,260,2013-01-31 01:30:00
8:53 PM,53.1,50.0,89,29.31,10.0,WSW,10.4,-,0.08,Rain,Light Rain,250,2013-01-31 01:53:00
9:15 PM,53.6,50.0,88,29.36,5.0,WSW,15.0,21.9,0.03,Rain,Rain,240,2013-01-31 02:15:00
9:24 PM,51.8,46.4,82,29.34,6.0,WSW,21.9,32.2,0.04,Rain,Rain,240,2013-01-31 02:24:00
9:53 PM,51.1,46.9,86,29.32,7.0,SW,16.1,29.9,0.07,Rain,Rain,220,2013-01-31 02:53:00
10:53 PM,48.9,46.0,90,29.32,7.0,SW,15.0,-,0.07,Rain,Light Rain,220,2013-01-31 03:53:00
11:31 PM,48.2,44.6,87,29.33,9.0,SW,13.8,-,0.04,Rain,Light Rain,220,2013-01-31 04:31:00
11:53 PM,48.0,43.0,83,29.32,10.0,SSW,15.0,26.5,0.06,Rain,Light Rain,210,2013-01-31 04:53:00